SCP
0 0 0 0 0 0 0 0 0 0 0 0 0 0 0 0 0 0 0 0 0 0 0 0 0 0 0 0 0 1 3 5 6 6 5 5 4 4 3 2 1 1 0 0
0 0 0 0 0 0 0 0 0 0 0 0 0 0 0 0 0 0 0 0 0 0 0 0 0 0 0 0 0 1 2 4 6 7 6 6 5 4 3 2 1 1 0 0
0 0 0 0 0 0 0 0 0 0 0 0 0 0 0 0 0 0 0 0 0 0 0 0 0 0 0 0 0 0 1 4 6 8 8 7 6 5 4 3 2 1 0 0
0 0 0 0 0 0 0 0 0 0 0 0 0 0 0 0 0 0 0 0 0 0 0 0 0 0 0 0 0 0 1 3 6 8 8 7 6 5 4 3 2 1 0 0
0 0 0 0 0 0 0 0 0 0 0 0 0 0 0 0 0 0 0 0 0 0 0 0 0 0 0 0 0 0 0 2 5 7 8 7 6 5 3 2 1 0 0 0
0 0 0 0 0 0 0 0 0 0 0 0 0 0 0 0 0 0 0 0 0 0 0 0 0 0 0 0 0 0 0 1 4 6 7 6 5 3 2 1 1 0 0 0
0 0 0 0 0 0 0 0 0 0 0 0 0 0 0 0 0 0 0 0 0 0 0 0 0 0 0 0 0 0 0 1 3 5 5 5 4 3 1 0 0 0 0 0
0 0 0 0 0 0 0 0 0 0 0 0 0 0 0 0 0 0 0 0 0 0 0 0 0 0 0 0 0 0 0 1 2 4 4 4 4 2 1 0 0 0 0 0
0 0 0 0 0 0 0 0 0 0 0 0 0 0 0 0 0 0 0 0 0 0 0 0 0 0 0 0 0 0 0 1 2 3 3 3 3 2 1 0 0 0 0 0
0 0 0 0 0 0 0 0 0 0 0 0 0 0 0 0 0 0 0 0 0 0 0 0 0 0 0 0 0 0 0 1 1 2 2 2 2 1 0 0 0 0 0 0
0 0 0 0 0 0 0 0 0 0 0 0 0 0 0 0 0 0 0 0 0 0 0 0 0 0 0 0 0 0 0 1 1 1 1 1 1 1 0 0 0 0 0 0
0 0 0 0 0 0 0 0 0 0 0 0 0 0 0 0 0 0 0 0 0 0 0 0 0 0 0 0 0 0 0 1 1 1 1 1 1 0 0 0 0 0 0 0
0 0 0 0 0 0 0 0 0 0 0 0 0 0 0 0 0 0 0 0 0 0 0 0 0 0 0 0 0 0 0 0 0 1 1 1 0 0 0 0 0 0 0 0
0 0 0 0 0 0 0 0 0 0 0 0 0 0 0 0 0 0 0 0 0 0 0 0 0 0 0 0 0 0 0 0 0 0 0 0 0 0 0 0 0 0 0 0
0 0 0 0 0 0 0 0 0 0 0 0 0 0 0 0 0 0 0 0 0 0 0 0 0 0 0 0 0 0 0 0 0 0 0 0 0 0 0 0 0 0 0 0
0 0 0 0 0 0 0 0 0 0 0 0 0 0 0 0 0 0 0 0 0 0 0 0 0 0 0 0 0 0 0 0 0 0 0 0 0 0 0 0 0 0 0 0
0 0 0 0 0 0 0 0 0 0 0 0 0 0 0 0 0 0 0 0 0 0 0 0 0 0 0 0 0 0 0 0 0 0 0 0 0 0 0 0 0 0 0 0
0 0 0 0 0 0 0 0 0 0 0 0 0 0 0 0 0 0 0 0 0 0 0 0 0 0 0 0 0 0 0 0 0 0 0 0 0 0 0 0 0 0 0 0
0 0 0 0 0 0 0 0 0 0 0 0 0 0 0 0 0 0 0 0 0 0 0 0 0 0 0 0 0 0 0 0 0 0 0 0 0 0 0 0 0 0 0 0
0 0 0 0 0 0 0 0 0 0 0 0 0 0 0 0 0 0 0 0 0 0 0 0 0 0 0 0 0 0 0 0 0 0 0 0 0 0 0 0 0 0 0 0
0 0 0 0 0 0 0 0 0 0 0 0 0 0 0 0 0 0 0 0 0 0 0 0 0 0 0 0 0 0 0 0 0 0 0 0 0 0 0 0 0 0 0 0
0 0 0 0 0 0 0 0 0 0 0 0 0 0 0 0 0 0 0 0 0 0 0 0 0 0 0 0 0 0 0 0 0 0 0 0 0 0 0 0 0 0 0 0
0 0 0 0 0 0 0 0 0 0 0 0 0 0 0 0 0 0 0 0 0 0 0 0 0 0 0 0 0 0 0 0 0 0 0 0 0 0 0 0 0 0 0 0
0 0 0 0 0 0 0 0 0 0 0 0 0 0 0 0 0 0 0 0 0 0 0 0 0 0 0 0 0 0 0 0 0 0 0 0 0 0 0 0 0 0 0 0
0 0 0 0 0 0 0 0 0 0 0 0 0 0 0 0 0 0 0 0 0 0 0 0 0 0 0 0 0 0 0 0 0 0 0 0 0 0 0 0 0 0 0 0
0 0 0 0 0 0 0 0 0 0 0 0 0 0 0 0 0 0 0 0 0 0 0 0 0 0 0 0 0 0 0 0 0 0 0 0 0 0 0 0 0 0 0 0
Wind_Speed
6 5 7 9 7 4 4 3 4 5 4 5 6 9 11 11 9 11 12 12 12 13 13 10 9 8 8 7 7 10 12 14 12 9 10 10 11 9 9 8 10 11 11 11
5 3 5 6 5 4 2 3 4 5 3 4 7 13 12 13 13 15 17 17 16 13 11 10 9 8 7 8 7 8 11 12 13 13 12 10 10 7 7 7 9 12 13 13
5 4 7 6 5 4 3 3 3 4 6 5 6 11 7 8 9 12 15 15 15 16 15 12 10 10 8 8 8 8 10 12 13 12 7 5 4 3 3 6 8 10 13 13
4 2 5 7 4 4 2 2 2 2 4 5 4 9 9 8 10 10 9 9 11 12 12 11 10 9 9 9 8 8 8 10 11 12 11 13 11 9 9 8 7 9 11 13
4 4 5 5 4 5 4 4 4 3 3 4 2 6 12 6 8 12 10 9 10 10 10 10 9 9 8 7 6 6 7 8 10 12 14 15 10 7 5 6 8 8 8 10
3 1 3 4 3 5 6 6 6 5 4 5 6 6 11 6 7 7 8 7 8 8 7 7 6 5 5 4 4 4 5 6 8 12 14 16 14 11 11 10 10 8 6 7
3 2 2 3 5 4 6 6 3 4 2 8 4 5 12 13 11 9 10 10 9 7 6 6 6 5 5 4 4 3 4 5 7 10 12 14 15 17 18 15 13 12 9 7
6 3 4 3 5 5 5 7 6 4 4 6 4 8 11 11 9 7 6 6 7 7 6 6 6 6 5 4 3 3 3 4 6 9 11 11 12 11 11 13 13 13 10 8
6 2 1 3 3 7 6 4 4 3 2 5 8 9 12 6 2 4 6 7 8 8 8 8 7 6 6 5 4 4 4 4 5 7 9 10 11 11 12 12 10 8 8 8
6 5 3 3 3 2 3 5 5 4 1 6 7 7 7 5 5 6 6 6 7 8 8 9 8 6 6 5 5 4 4 5 6 6 8 9 11 11 12 12 13 11 11 11
3 6 4 3 4 6 4 3 4 3 3 3 7 10 7 5 4 5 6 7 10 12 12 11 9 7 6 6 5 4 4 4 5 6 7 9 11 11 12 12 13 13 12 14
2 5 3 2 3 6 5 5 6 4 4 4 4 13 7 6 6 6 10 13 14 14 13 12 10 8 6 6 5 5 5 5 5 6 8 10 11 12 12 12 13 13 14 14
4 5 3 2 2 2 4 5 6 4 3 4 6 13 4 5 11 14 17 17 15 15 14 12 9 7 7 6 5 5 4 5 4 6 8 10 12 12 12 12 13 14 14 13
5 4 5 5 4 5 5 5 8 8 5 6 11 17 19 18 19 17 14 14 13 12 12 10 7 7 6 4 3 3 4 3 1 5 8 10 10 11 12 13 13 13 14 14
5 3 4 5 5 4 7 8 9 12 11 10 12 15 23 22 19 13 11 13 13 12 11 9 6 5 4 2 2 3 4 3 4 6 7 8 9 12 13 13 13 13 13 13
4 3 1 4 5 6 8 11 12 13 15 17 20 24 21 14 9 8 10 12 13 13 11 8 5 4 3 2 3 5 6 7 9 10 10 10 12 14 14 15 14 14 14 13
4 5 1 4 5 4 8 10 12 8 9 11 15 13 10 13 10 6 8 11 11 11 10 8 6 5 6 6 7 8 9 10 12 12 12 11 13 15 16 16 16 15 13 13
7 5 2 3 3 5 6 2 7 8 9 11 10 11 11 11 4 2 5 8 9 9 8 7 7 8 8 9 10 11 12 12 13 13 12 12 14 16 15 15 15 13 11 10
6 5 3 2 3 7 8 4 5 5 8 7 7 9 8 6 1 1 5 6 7 7 6 7 7 8 9 10 10 12 13 12 13 13 13 12 14 14 14 14 12 10 10 9
5 4 3 3 4 5 5 2 2 1 6 4 5 7 6 4 2 2 4 5 6 7 6 7 7 9 9 9 10 12 12 12 12 11 11 11 12 13 13 12 10 8 8 7
6 5 6 5 5 8 8 4 2 1 5 3 4 5 3 2 1 1 3 4 5 5 6 7 8 8 8 8 9 11 10 10 10 10 11 12 12 12 11 9 7 7 6 6
8 6 6 6 6 9 5 1 3 6 5 3 3 3 3 4 4 4 3 3 3 5 6 6 7 7 7 7 9 11 10 9 9 11 11 11 10 9 8 8 7 6 6 6
7 8 6 8 9 6 2 4 3 2 4 3 2 3 6 6 5 4 4 4 4 5 5 6 7 8 8 7 8 10 8 9 10 11 11 9 9 8 7 7 7 5 5 4
4 4 4 5 8 7 6 4 3 3 3 3 2 5 7 6 6 6 5 5 5 5 5 5 7 8 8 7 8 8 8 8 9 10 9 8 8 7 6 5 5 4 3 3
4 2 3 5 7 6 3 4 4 3 2 1 1 4 7 8 7 6 6 7 6 5 5 5 6 7 7 7 7 7 6 8 10 9 8 7 6 6 5 4 3 4 2 3
5 6 5 7 7 5 5 4 4 4 4 3 4 4 5 7 7 7 6 6 7 7 6 6 7 7 7 7 7 6 6 7 9 8 6 5 4 4 4 3 3 5 4 5
Wind_Direction
137 144 175 181 181 164 150 172 245 262 318 329 279 271 270 273 270 265 263 259 256 257 259 261 252 244 244 244 221 208 204 203 195 188 188 188 192 190 187 184 174 168 162 160
113 158 157 158 192 231 236 264 275 288 329 327 287 278 264 255 250 246 250 254 255 256 263 260 255 249 237 237 232 216 210 206 200 196 193 193 190 188 185 171 167 167 164 164
131 167 165 164 180 190 187 206 245 292 337 353 330 295 270 275 262 255 247 248 250 249 252 254 252 249 244 242 238 229 215 210 206 199 184 149 111 92 134 167 172 173 169 169
125 140 145 157 173 154 148 73 116 43 20 318 3 300 290 284 296 282 270 260 256 254 251 249 248 249 246 246 245 240 227 214 205 194 184 175 177 179 185 179 171 168 170 169
154 160 135 148 152 136 144 103 81 72 55 326 268 251 283 297 281 279 278 272 264 259 251 249 246 243 248 250 249 246 236 222 206 197 192 189 186 174 152 149 154 161 165 167
107 117 137 141 109 115 122 65 46 51 60 289 233 209 280 263 249 283 300 292 276 267 256 249 249 243 250 255 256 249 236 227 207 200 197 194 182 159 152 159 164 165 161 162
103 51 72 102 99 78 96 87 28 346 308 257 231 223 255 257 260 265 287 297 296 284 265 253 242 227 227 234 242 241 228 229 212 203 201 199 185 172 171 170 171 168 169 170
141 193 203 144 144 146 142 137 166 220 251 289 284 241 256 262 277 284 295 312 329 325 308 287 264 245 232 230 227 235 232 233 217 206 203 197 185 177 176 174 171 175 175 168
146 182 124 149 121 128 140 169 166 127 318 285 277 286 295 283 317 354 357 358 347 334 323 308 293 279 263 251 239 234 235 237 225 209 199 189 181 176 172 170 163 159 149 145
133 128 133 117 91 62 136 145 114 130 210 285 288 271 259 290 323 334 336 335 324 323 319 308 299 286 276 270 265 259 242 233 230 212 196 185 178 173 166 162 161 157 151 149
105 117 137 131 174 178 154 158 149 151 174 225 289 274 230 246 276 290 303 308 311 307 300 293 288 279 273 278 275 271 268 252 230 205 186 171 165 160 161 163 161 155 149 149
149 114 141 220 237 179 169 179 154 166 231 216 250 272 264 268 276 287 303 306 303 298 293 284 276 273 271 274 281 280 274 256 231 197 173 165 157 156 159 158 154 150 148 147
135 115 96 13 317 187 201 194 184 169 179 206 230 264 287 310 306 305 306 306 303 299 294 284 275 271 272 270 282 293 290 271 234 177 161 155 155 155 153 149 145 143 140 138
116 121 166 179 192 177 204 202 189 183 210 234 236 265 289 298 300 304 308 310 307 304 302 294 282 278 278 280 295 318 323 307 191 149 147 148 149 142 137 135 134 133 132 132
112 156 212 246 237 211 216 219 205 206 214 237 259 271 283 293 300 308 320 321 317 317 316 312 305 299 303 319 357 11 11 32 81 100 108 113 115 117 117 118 117 117 117 116
114 145 228 283 265 230 239 236 227 233 237 246 263 275 276 283 301 319 334 330 326 326 327 326 330 352 10 31 57 63 60 60 75 84 89 97 105 107 106 105 104 102 102 102
145 142 180 276 301 321 262 229 206 209 215 221 246 257 288 306 318 339 338 333 330 332 340 353 15 33 46 58 70 74 75 77 80 85 90 95 101 100 99 99 97 96 97 96
143 147 184 280 324 256 248 232 188 215 241 230 244 268 289 300 310 66 357 338 339 346 359 21 40 52 56 63 71 78 81 84 87 89 92 94 96 96 96 96 95 95 95 96
151 157 195 251 281 279 282 240 200 222 271 239 240 270 289 308 215 115 17 0 357 3 23 38 51 63 69 72 80 85 85 88 91 92 92 93 96 99 98 97 96 97 99 98
163 153 192 225 262 259 258 256 172 147 282 250 238 271 291 319 301 323 18 14 17 26 39 52 60 67 72 76 85 88 89 89 91 93 92 91 93 96 97 98 100 101 106 113
177 191 211 226 251 267 256 257 127 235 267 271 245 254 254 224 203 107 57 39 36 43 50 60 67 69 70 78 88 90 89 90 93 94 92 89 89 93 98 100 104 111 110 105
182 191 197 195 219 253 260 197 207 239 277 290 265 216 175 147 126 116 94 71 57 60 62 66 71 68 65 76 89 90 87 90 93 94 93 92 93 96 101 103 98 94 97 96
198 197 191 201 221 240 259 245 257 253 275 280 258 187 152 148 152 137 119 104 87 81 77 75 79 75 66 68 85 94 93 97 98 95 94 92 89 86 89 95 96 88 88 97
244 195 204 247 261 261 258 244 242 241 251 271 240 170 158 156 152 144 132 120 107 96 93 93 92 88 81 79 83 95 102 102 100 95 90 88 89 84 77 80 87 95 102 109
246 219 225 255 275 292 266 230 230 228 219 214 146 158 158 150 153 150 140 132 123 111 103 99 100 100 98 96 93 92 95 100 97 92 89 85 84 88 83 79 92 113 132 137
223 202 204 234 239 233 255 238 205 204 206 185 151 140 149 154 151 141 136 131 127 122 114 109 108 108 105 100 94 87 89 100 106 102 95 93 95 95 97 98 79 74 84 77